Effective Sunday, March 17, 2024, the National Weather Service National Data Buoy Center will discontinue its Dial-A-Buoy Interactive Voice Response system. For more information, see Service Change Notice 24-06 (PDF).

Station SWPM4 - 9076070 - S.W. Pier, MI Image indicating link to RSS feed of recent meteorological observations for station SWPM4


Conditions at SWPM4 as of
(12:18 am EST)
0518 GMT on 03/02/2024:
     

Click on the graph icon in the table below to see a time series plot of the last five days of that observation.

5-day plot - Wind Direction Wind Direction (WDIR): E ( 80 deg true )
5-day plot - Wind Speed Wind Speed (WSPD): 4.1 kts
5-day plot - Wind Gust Wind Gust (GST): 5.1 kts
5-day plot - Atmospheric Pressure Atmospheric Pressure (PRES):29.99 in
5-day plot - Air Temperature Air Temperature (ATMP): 30.9 °F
5-day plot - Wind Chill Wind Chill (CHILL): 26.1 °F
5-day plot - Wind Speed at 10 Meters Wind Speed at 10 meters (WSPD10M): 3.9 kts
5-day plot - Wind Speed at 20 Meters Wind Speed at 20 meters (WSPD20M): 3.9 kts
5-day plot -  Wind Speed, Wind Gust and Atmospheric Pressure Combined plot of Wind Speed, Gust, and Air Pressure
NOS Water Level Observation Network Water Level
Previous observations
TIME
(EST)
5-day plot - Wind Direction
WDIR
 
5-day plot - Wind Speed
WSPD
kts
5-day plot - Wind Gust
GST
kts
5-day plot - Wave Height
WVHT
ft
5-day plot - Dominant Wave Period
DPD
sec
5-day plot - Average Wave Period
APD
sec
5-day plot - Mean Wave Direction
MWD
 
5-day plot - Atmospheric Pressure
PRES
in
5-day plot - Pressure Tendency
PTDY
in
5-day plot - Air Temperature
ATMP
°F
5-day plot - Water Temperature
WTMP
°F
5-day plot - Dew Point
DEWP
°F
5-day plot - Salinity
SAL
psu
5-day plot - Visibility
VIS
nmi
5-day plot - Tide (above MLLW)
TIDE
ft
2024-03-02 12:12 am NE 1.9 2.9----29.99- 30.6-----
2024-03-02 12:06 am- 0.0 4.1----29.99- 30.7-----
2024-03-02 12:00 am E 1.9 4.1----29.99+0.01 30.9-----
2024-03-01 11:54 pmESE 2.9 6.0----29.99- 31.1-----
2024-03-01 11:48 pmESE 5.1 5.1----29.99- 31.5-----
2024-03-01 11:42 pmESE 4.1 4.1----29.99- 31.5-----
2024-03-01 11:36 pmESE 2.9 5.1----29.99- 31.5-----
2024-03-01 11:30 pm E 4.1 5.1----29.99- 31.8-----
2024-03-01 11:24 pm E 5.1 5.1----29.99- 31.8-----
2024-03-01 11:18 pmESE 4.1 4.1----29.99- 31.8-----
2024-03-01 11:12 pm E 2.9 4.1----29.99- 32.2-----
2024-03-01 11:06 pm E 4.1 5.1----29.99- 32.5-----
2024-03-01 11:00 pmESE 5.1 6.0----29.99+0.01 32.9-----
2024-03-01 10:54 pmESE 5.1 6.0----29.99- 33.3-----
2024-03-01 10:48 pm E 5.1 6.0----29.99- 33.1-----
2024-03-01 10:42 pm E 5.1 6.0----29.99- 33.4-----
2024-03-01 10:36 pm E 6.0 6.0----29.99- 33.3-----
2024-03-01 10:30 pm E 5.1 6.0----29.99- 32.9-----
2024-03-01 10:24 pm E 5.1 6.0----29.99- 33.1-----
2024-03-01 10:18 pm E 5.1 5.1----29.99- 33.1-----
2024-03-01 10:12 pm E 4.1 5.1----29.99- 33.4-----
2024-03-01 10:06 pm E 2.9 4.1----29.98- 33.6-----
2024-03-01 10:00 pmESE 2.9 4.1----29.98+0.00 34.0-----
2024-03-01 09:54 pm SE 4.1 6.0----29.98- 33.8-----
2024-03-01 09:48 pmESE 4.1 5.1----29.98- 34.3-----
2024-03-01 09:42 pmESE 4.1 5.1----29.98- 34.3-----
2024-03-01 09:36 pmESE 5.1 7.0----29.98- 34.7-----
2024-03-01 09:30 pmESE 5.1 6.0----29.98- 34.5-----
2024-03-01 09:24 pmESE 5.1 6.0----29.98- 34.9-----
2024-03-01 09:18 pmESE 5.1 6.0----29.98- 35.2-----
2024-03-01 09:12 pm SE 5.1 8.0----29.98- 35.4-----
2024-03-01 09:06 pm SE 6.0 8.0----29.97- 35.4-----
2024-03-01 09:00 pm SE 6.0 8.0----29.98+0.00 35.2-----
2024-03-01 08:54 pmESE 7.0 8.0----29.98- 35.4-----
2024-03-01 08:48 pmESE 5.1 7.0----29.98- 35.2-----
2024-03-01 08:42 pmESE 6.0 8.0----29.97- 35.4-----
2024-03-01 08:36 pm SE 5.1 8.0----29.97- 35.4-----
2024-03-01 08:30 pm SE 4.1 7.0----29.98- 35.6-----
2024-03-01 08:24 pmESE 5.1 6.0----29.98- 36.1-----
2024-03-01 08:18 pm SE 4.1 6.0----29.98- 36.1-----
2024-03-01 08:12 pm SE 4.1 6.0----29.98- 36.5-----
2024-03-01 08:06 pm SE 5.1 7.0----29.98- 37.0-----
2024-03-01 08:00 pm SE 5.1 7.0----29.98-0.01 37.6-----
2024-03-01 07:54 pm SE 5.1 8.0----29.98- 38.5-----
2024-03-01 07:48 pmSSE 5.1 8.0----29.98- 38.8-----
2024-03-01 07:42 pmSSE 5.1 8.0----29.98- 39.0-----
2024-03-01 07:36 pmSSE 5.1 9.9----29.98- 39.2-----
2024-03-01 07:30 pmSSE 6.0 8.9----29.98- 39.4-----
2024-03-01 07:24 pmSSE 5.1 9.9----29.98- 39.4-----
2024-03-01 07:18 pmSSE 7.0 9.9----29.98- 39.6-----
2024-03-01 07:12 pmSSE 4.1 7.0----29.99- 39.2-----
2024-03-01 07:06 pmSSE 4.1 7.0----29.99- 39.4-----
2024-03-01 07:00 pmSSE 5.1 7.0----29.99-0.01 40.1-----
2024-03-01 06:54 pmSSE 2.9 5.1----29.99- 40.3-----
2024-03-01 06:48 pmSSE 2.9 5.1----29.98- 40.5-----
2024-03-01 06:42 pmSSE 2.9 6.0----29.98- 40.6-----
2024-03-01 06:36 pm SE 4.1 6.0----29.98- 40.6-----
2024-03-01 06:30 pmESE 5.1 7.0----29.98- 41.0-----
2024-03-01 06:24 pmESE 6.0 7.0----29.98- 41.5-----
2024-03-01 06:18 pm SE 6.0 11.1----29.98- 42.1-----
2024-03-01 06:12 pm SE 7.0 8.9----29.98- 42.6-----
2024-03-01 06:06 pm SE 7.0 8.9----29.98- 43.0-----
2024-03-01 06:00 pm SE 7.0 11.1----29.98-0.04 43.7-----
2024-03-01 05:54 pm SE 5.1 8.0----29.98- 46.2-----
2024-03-01 05:48 pmSSE 4.1 7.0----29.98- 47.3-----
2024-03-01 05:42 pm S 4.1 8.0----29.98- 47.5-----
2024-03-01 05:36 pmSSW 5.1 7.0----29.98- 47.5-----
2024-03-01 05:30 pmSSW 7.0 12.0----29.99- 47.7-----
2024-03-01 05:24 pmSSW 7.0 13.0----29.99- 47.7-----
2024-03-01 05:18 pmSSW 7.0 13.0----29.99- 48.0-----
2024-03-01 05:12 pmSSW 7.0 11.1----29.99- 48.0-----
2024-03-01 05:06 pmSSW 6.0 11.1----29.99- 48.4-----
2024-03-01 05:00 pmSSW 5.1 11.1----29.99-0.05 48.6-----
2024-03-01 04:54 pmSSW 7.0 14.0----29.99- 48.6-----
2024-03-01 04:48 pmSSW 7.0 11.1----29.99- 48.6-----
2024-03-01 04:42 pmSSW 8.0 13.0----29.99- 48.6-----
2024-03-01 04:36 pmSSW 8.9 15.9----29.99- 48.4-----
2024-03-01 04:30 pmSSW 11.1 15.9----29.99- 48.4-----
2024-03-01 04:24 pmSSW 6.0 9.9----30.00- 48.2-----
2024-03-01 04:18 pm SW 7.0 9.9----30.00- 48.0-----
2024-03-01 04:12 pm SW 6.0 8.0----30.00- 48.0-----
2024-03-01 04:06 pmSSW 5.1 8.0----30.00- 48.7-----
2024-03-01 04:00 pm S 6.0 8.9----30.00-0.06 48.4-----
2024-03-01 03:54 pmSSW 7.0 9.9----30.00- 47.8-----
2024-03-01 03:48 pm SW 7.0 11.1----30.00- 47.5-----
2024-03-01 03:42 pm SW 7.0 8.9----30.00- 47.5-----
2024-03-01 03:36 pm S 7.0 9.9----30.00- 47.5-----
2024-03-01 03:30 pmSSW 4.1 11.1----30.01- 46.9-----
2024-03-01 03:24 pm SW 7.0 11.1----30.01- 46.0-----
2024-03-01 03:18 pm SW 8.0 13.0----30.01- 46.2-----
2024-03-01 03:12 pm SW 5.1 11.1----30.01- 45.9-----
2024-03-01 03:06 pm SW 8.0 13.0----30.01- 45.5-----
2024-03-01 03:00 pmSSW 6.0 12.0----30.02-0.06 45.5-----
2024-03-01 02:54 pm SW 7.0 11.1----30.02- 45.0-----
2024-03-01 02:48 pm SW 9.9 12.0----30.02- 44.2-----
2024-03-01 02:42 pm SW 7.0 13.0----30.02- 44.6-----
2024-03-01 02:36 pm SW 8.0 12.0----30.02- 44.4-----
2024-03-01 02:30 pm SW 9.9 14.0----30.03- 44.1-----
2024-03-01 02:24 pm SW 9.9 15.9----30.03- 43.7-----
2024-03-01 02:18 pm SW 13.0 17.1----30.03- 43.5-----
2024-03-01 02:12 pmSSW 12.0 19.0----30.03- 43.7-----
2024-03-01 02:06 pm SW 9.9 17.1----30.04- 43.3-----
2024-03-01 02:00 pmSSW 8.9 18.1----30.04-0.06 43.3-----
2024-03-01 01:54 pm SW 13.0 17.1----30.04- 42.8-----
2024-03-01 01:48 pm SW 9.9 21.0----30.04- 42.8-----
2024-03-01 01:42 pm SW 14.0 19.0----30.04- 42.8-----
2024-03-01 01:36 pmSSW 14.0 22.0----30.04- 42.4-----
2024-03-01 01:30 pmSSW 11.1 17.1----30.04- 42.8-----
2024-03-01 01:24 pm SW 14.0 19.0----30.04- 42.4-----
2024-03-01 01:18 pmSSW 13.0 21.0----30.05- 42.4-----
2024-03-01 01:12 pmSSW 8.0 13.0----30.05- 42.6-----
2024-03-01 01:06 pm SW 8.9 15.0----30.05- 42.3-----
2024-03-01 01:00 pmSSW 12.0 18.1----30.06-0.05 41.9-----
2024-03-01 12:54 pm SW 12.0 18.1----30.06- 41.9-----
2024-03-01 12:48 pmSSW 9.9 15.9----30.06- 41.7-----
2024-03-01 12:42 pm SW 9.9 20.0----30.06- 41.4-----
2024-03-01 12:36 pm SW 11.1 19.0----30.06- 41.7-----
2024-03-01 12:30 pmSSW 11.1 17.1----30.07- 41.5-----
2024-03-01 12:24 pm SW 8.9 18.1----30.07- 41.7-----
2024-03-01 12:18 pmSSW 7.0 12.0----30.07- 40.8-----
2024-03-01 12:12 pm S 4.1 7.0----30.07- 40.1-----
2024-03-01 12:06 pmESE 7.0 8.9----30.08- 39.2-----
2024-03-01 12:00 pmSSE 6.0 9.9----30.08-0.04 38.7-----
2024-03-01 11:54 amESE 7.0 9.9----30.08- 37.4-----
2024-03-01 11:48 amESE 5.1 9.9----30.08- 37.6-----
2024-03-01 11:42 am SE 7.0 8.0----30.08- 36.9-----
2024-03-01 11:36 amESE 8.0 11.1----30.08- 36.0-----
2024-03-01 11:30 am E 7.0 8.9----30.09- 34.9-----
2024-03-01 11:24 amESE 2.9 8.0----30.09- 35.1-----
2024-03-01 11:18 am E 7.0 8.9----30.09- 32.7-----
2024-03-01 11:12 am E 5.1 8.0----30.09- 32.5-----
2024-03-01 11:06 am E 6.0 8.0----30.09- 31.8-----
2024-03-01 11:00 am E 6.0 8.9----30.10-0.03 31.6-----
2024-03-01 10:54 am E 5.1 7.0----30.10- 31.6-----
2024-03-01 10:48 am E 6.0 9.9----30.10- 30.7-----
2024-03-01 10:42 am E 11.1 12.0----30.10- 29.7-----
2024-03-01 10:36 am E 8.0 9.9----30.10- 29.5-----
2024-03-01 10:30 amSSE 6.0 11.1----30.10- 29.7-----
2024-03-01 10:24 amESE 5.1 12.0----30.10- 28.8-----
2024-03-01 10:18 am E 9.9 12.0----30.10- 28.2-----
2024-03-01 10:12 am E 8.9 12.0----30.10- 27.5-----
2024-03-01 10:06 am S 2.9 14.0----30.11- 27.7-----
2024-03-01 10:00 am E 9.9 12.0----30.11-0.03 26.6-----
2024-03-01 09:54 amESE 4.1 13.0----30.12- 26.6-----
2024-03-01 09:48 amNNE 2.9 9.9----30.12- 26.1-----
2024-03-01 09:42 am E 8.0 9.9----30.11- 25.5-----
2024-03-01 09:36 amSSE 4.1 14.0----30.12- 25.7-----
2024-03-01 09:30 amENE 11.1 13.0----30.11- 24.4-----
2024-03-01 09:24 am NE 4.1 7.0----30.13- 24.8-----
2024-03-01 09:18 amENE 4.1 6.0----30.13- 24.3-----
2024-03-01 09:12 am E 5.1 9.9----30.12- 24.3-----
2024-03-01 09:06 am E 6.0 8.0----30.12- 23.5-----
2024-03-01 09:00 am E 6.0 8.9----30.12-0.01 23.4-----
2024-03-01 08:54 am E 6.0 8.9----30.12- 22.8-----
2024-03-01 08:48 am E 6.0 8.0----30.12- 22.3-----
2024-03-01 08:42 am E 6.0 8.9----30.13- 22.1-----
2024-03-01 08:36 am E 7.0 8.9----30.13- 21.7-----
2024-03-01 08:30 am E 5.1 8.9----30.13- 21.6-----
2024-03-01 08:24 am E 7.0 8.0----30.13- 21.4-----
2024-03-01 08:18 amENE 6.0 8.0----30.13- 21.4-----
2024-03-01 08:12 am E 7.0 8.0----30.13- 21.2-----
2024-03-01 08:06 am E 6.0 7.0----30.13- 21.0-----
2024-03-01 08:00 am E 6.0 8.0----30.13-0.01 20.8-----
2024-03-01 07:54 am E 5.1 7.0----30.13- 20.8-----
2024-03-01 07:48 am E 6.0 7.0----30.13- 20.7-----
2024-03-01 07:42 am E 5.1 7.0----30.13- 20.7-----
2024-03-01 07:36 am E 4.1 5.1----30.13- 20.7-----
2024-03-01 07:30 am E 5.1 7.0----30.13- 20.5-----
2024-03-01 07:24 am E 5.1 7.0----30.13- 20.7-----
2024-03-01 07:18 am E 5.1 8.0----30.13- 20.7-----
2024-03-01 07:12 am E 5.1 7.0----30.13- 20.7-----
2024-03-01 07:06 am E 6.0 7.0----30.13- 20.7-----
2024-03-01 07:00 am E 5.1 6.0----30.13-0.02 20.5-----
2024-03-01 06:54 am E 4.1 5.1----30.14- 20.5-----
2024-03-01 06:48 am E 5.1 7.0----30.13- 20.5-----
2024-03-01 06:42 am E 6.0 8.0----30.13- 20.5-----
2024-03-01 06:36 am E 6.0 8.0----30.13- 20.5-----
2024-03-01 06:30 am E 5.1 7.0----30.13- 20.3-----
2024-03-01 06:24 am E 5.1 8.0----30.14- 20.5-----
2024-03-01 06:18 am E 6.0 9.9----30.13- 20.5-----
2024-03-01 06:12 am E 7.0 8.9----30.14- 20.5-----
2024-03-01 06:06 am E 7.0 9.9----30.14- 20.3-----
2024-03-01 06:00 amESE 8.0 11.1----30.14-0.04 20.3-----
2024-03-01 05:54 am E 7.0 11.1----30.14- 20.3-----
2024-03-01 05:48 am E 8.0 11.1----30.14- 20.3-----
2024-03-01 05:42 am E 8.9 12.0----30.14- 20.3-----
2024-03-01 05:36 am E 8.0 11.1----30.14- 20.3-----
2024-03-01 05:30 am E 8.0 11.1----30.14- 20.3-----
2024-03-01 05:24 am E 8.0 12.0----30.14- 20.1-----
2024-03-01 05:18 am E 7.0 8.9----30.14- 20.1-----
2024-03-01 05:12 am E 6.0 11.1----30.14- 20.3-----
2024-03-01 05:06 am E 6.0 11.1----30.14- 20.3-----
2024-03-01 05:00 am E 7.0 9.9----30.14-0.06 20.3-----
2024-03-01 04:54 am E 7.0 9.9----30.14- 20.3-----
2024-03-01 04:48 am E 6.0 8.9----30.14- 20.3-----
2024-03-01 04:42 am E 7.0 12.0----30.15- 20.5-----
2024-03-01 04:36 am E 8.0 9.9----30.15- 20.3-----
2024-03-01 04:30 amESE 5.1 11.1----30.15- 20.1-----
2024-03-01 04:24 am E 8.9 12.0----30.15- 20.1-----
2024-03-01 04:18 am E 8.9 9.9----30.15- 20.1-----
2024-03-01 04:12 am E 5.1 8.0----30.16- 20.1-----
2024-03-01 04:06 am E 5.1 8.9----30.15- 20.1-----
2024-03-01 04:00 am E 8.0 9.9----30.16-0.06 20.3-----
2024-03-01 03:54 amESE 6.0 9.9----30.16- 20.3-----
2024-03-01 03:48 am E 6.0 8.9----30.16- 20.3-----
2024-03-01 03:42 am E 7.0 9.9----30.16- 20.3-----
2024-03-01 03:36 am E 6.0 8.0----30.16- 20.3-----
2024-03-01 03:30 am E 7.0 9.9----30.17- 20.3-----
2024-03-01 03:24 am E 8.0 11.1----30.17- 20.3-----
2024-03-01 03:18 am E 8.0 9.9----30.17- 20.3-----
2024-03-01 03:12 am E 7.0 11.1----30.18- 20.1-----
2024-03-01 03:06 am E 6.0 9.9----30.18- 20.1-----
2024-03-01 03:00 am E 7.0 8.9----30.18-0.04 20.1-----
2024-03-01 02:54 am E 6.0 8.9----30.19- 20.1-----
2024-03-01 02:48 am E 7.0 8.9----30.19- 19.9-----
2024-03-01 02:42 am E 7.0 9.9----30.19- 19.9-----
2024-03-01 02:36 am E 6.0 8.9----30.19- 19.9-----
2024-03-01 02:30 am E 6.0 9.9----30.19- 19.8-----
2024-03-01 02:24 am E 7.0 8.0----30.20- 19.9-----
2024-03-01 02:18 am E 6.0 7.0----30.20- 19.9-----
2024-03-01 02:12 am E 5.1 8.0----30.20- 19.9-----
2024-03-01 02:06 am E 5.1 8.0----30.21- 20.1-----
2024-03-01 02:00 am E 6.0 8.9----30.21-0.04 20.1-----
2024-03-01 01:54 am E 7.0 8.9----30.20- 19.9-----
2024-03-01 01:48 am E 7.0 9.9----30.21- 19.9-----
2024-03-01 01:42 am E 7.0 9.9----30.21- 19.9-----
2024-03-01 01:36 amESE 6.0 9.9----30.21- 19.9-----
2024-03-01 01:30 amESE 7.0 8.9----30.21- 19.9-----
2024-03-01 01:24 amESE 6.0 8.0----30.21- 19.8-----
2024-03-01 01:18 am E 6.0 9.9----30.21- 19.8-----
2024-03-01 01:12 amESE 7.0 8.9----30.21- 19.8-----
2024-03-01 01:06 am E 6.0 8.0----30.21- 19.9-----
2024-03-01 01:00 amESE 5.1 7.0----30.21-0.05 19.9-----
2024-03-01 12:54 amESE 5.1 6.0----30.22-------